Location: Newark
(42.5833°N, 2.9500°W)
Time: 09:48:59
(UTC+00:00)

Envisat - Visible Passes

Search period start: 22 November 2019 00:00
Search period end: 02 December 2019 00:00
Orbit: 764 x 766 km, 98.1° (Epoch: 22 November)

Date Brightness Start Highest point End Pass type
(mag) Time Alt. Az. Time Alt. Az. Time Alt. Az.
22 Nov 6.0 05:52:21 10° NE 05:55:35 17° E 05:58:47 10° SE visible
22 Nov 4.0 17:07:21 10° ESE 17:11:24 25° ENE 17:15:28 10° NNE visible
22 Nov 4.2 18:45:23 10° S 18:50:10 42° W 18:55:00 10° NNW visible
23 Nov 2.9 18:08:15 10° SSE 18:13:20 88° ENE 18:18:27 10° NNW visible
23 Nov 6.2 19:51:53 10° W 19:53:02 11° W 19:54:10 10° WNW visible
24 Nov 5.3 06:16:55 10° NE 06:21:19 29° E 06:25:40 10° SSE visible
24 Nov 3.4 17:31:58 10° SE 17:36:42 41° ENE 17:41:26 10° N visible
24 Nov 5.2 19:11:45 10° SSW 19:15:50 24° W 19:19:58 10° NW visible
25 Nov 6.2 05:41:50 10° ENE 05:44:10 13° E 05:46:30 10° ESE visible
25 Nov 3.8 18:33:55 10° S 18:38:51 53° W 18:43:51 10° NNW visible
26 Nov 4.1 06:41:59 10° NNE 06:46:56 50° E 06:51:51 10° S visible
26 Nov 2.9 17:57:02 10° SSE 18:02:05 70° ENE 18:07:09 10° N visible
26 Nov 6.0 19:39:01 10° WSW 19:41:36 14° W 19:44:13 10° WNW visible
27 Nov 5.6 06:05:56 10° NE 06:09:56 23° E 06:13:56 10° SE visible
27 Nov 3.6 17:21:00 10° SE 17:25:29 33° ENE 17:30:00 10° N visible
27 Nov 4.8 19:00:02 10° SSW 19:04:29 31° W 19:08:58 10° NNW visible
28 Nov 3.3 18:22:31 10° S 18:27:34 68° WSW 18:32:38 10° NNW visible
29 Nov 4.6 06:30:51 10° NNE 06:35:37 40° E 06:40:22 10° SSE visible
29 Nov 3.0 17:45:54 10° SSE 17:50:50 56° ENE 17:55:49 10° N visible
29 Nov 5.7 19:26:49 10° SW 19:30:13 18° W 19:33:36 10° NW visible
30 Nov 5.9 05:55:05 10° NE 05:58:34 18° E 06:02:02 10° SE visible
30 Nov 3.9 17:10:07 10° ESE 17:14:18 27° ENE 17:18:31 10° N visible
30 Nov 4.4 18:48:26 10° SSW 18:53:09 38° W 18:57:53 10° NNW visible
01 Dec 3.0 18:11:12 10° SSE 18:16:17 85° WSW 18:21:24 10° NNW visible
